CW5629 Weather Reports


time (UTC)temp
C
wind
direction
speed
KPH
gust
KPH
rain 1hr
cm
rain 24hr
cm
rain mn
cm
humidity
%
barometer
mb
20260508075121 14 113 0.0 1.6 0.00 0.00 0.00 80 1013.9
20260508074112 13 105 0.0 1.6 0.00 0.00 0.00 81 1013.7
20260508073148 13 105 0.0 1.6 0.00 0.00 0.00 83 1013.7
20260508072113 13 105 0.0 1.6 0.00 0.00 0.00 86 1013.7
20260508070139 11 115 0.0 0.0 0.00 0.00 0.00 89 1013.6
20260508065130 11 115 0.0 1.6 0.00 0.00 0.00 88 1013.5
20260508064134 11 117 0.0 1.6 0.00 0.00 0.00 88 1013.4
20260508063146 11 117 0.0 1.6 0.00 0.00 0.00 89 1013.4
20260508062117 11 103 0.0 1.6 0.00 0.00 0.00 89 1013.3
20260508061130 11 106 0.0 1.6 0.00 0.00 0.00 89 1013.3
20260508060116 10 109 0.0 1.6 0.00 0.00 0.00 89 1013.4
20260508055127 10 112 0.0 0.0 0.00 0.00 0.00 89 1013.3
20260508054114 10 112 0.0 1.6 0.00 0.00 0.00 90 1013.4
20260508053126 10 112 0.0 0.0 0.00 0.00 0.00 90 1013.3
20260508052119 10 111 0.0 0.0 0.00 0.00 0.00 90 1013.3
20260508051123 10 111 0.0 0.0 0.00 0.00 0.00 90 1013.3
20260508050118 10 111 0.0 0.0 0.00 0.00 0.00 89 1013.3
20260508045121 10 111 0.0 0.0 0.00 0.00 0.00 89 1013.2
20260508044111 10 111 0.0 0.0 0.00 0.00 0.00 89 1013.2
20260508043123 10 115 0.0 0.0 0.00 0.00 0.00 89 1013.2
20260508042113 10 115 0.0 0.0 0.00 0.00 0.00 89 1013.2
20260508041127 10 114 0.0 0.0 0.00 0.00 0.00 89 1013.0
20260508040140 10 116 0.0 0.0 0.00 0.00 0.00 89 1012.9
20260508035132 10 116 0.0 0.0 0.00 0.00 0.00 89 1013.0
20260508034115 10 116 0.0 0.0 0.00 0.00 0.00 89 1013.2
20260508033128 10 116 0.0 0.0 0.00 0.00 0.00 89 1013.3
20260508032114 10 116 0.0 1.6 0.00 0.00 0.00 89 1013.4
20260508031128 10 116 0.0 0.0 0.00 0.00 0.00 89 1013.4
20260508030141 10 116 0.0 0.0 0.00 0.00 0.00 89 1013.5
20260508025133 10 116 0.0 0.0 0.00 0.00 0.00 89 1013.6
20260508024117 10 116 0.0 1.6 0.00 0.00 0.00 89 1013.5
20260508023129 10 129 0.0 0.0 0.00 0.00 0.00 89 1013.7
20260508022122 10 129 0.0 0.0 0.00 0.00 0.00 89 1013.6
20260508021134 10 129 0.0 0.0 0.00 0.00 0.00 90 1013.6
20260508020120 10 129 0.0 0.0 0.00 0.00 0.00 90 1013.8
20260508015133 10 129 0.0 0.0 0.00 0.00 0.00 90 1013.8
20260508014126 10 129 0.0 1.6 0.00 0.00 0.00 90 1013.7
20260508013120 10 110 0.0 0.0 0.00 0.00 0.00 90 1013.7
20260508012125 10 110 0.0 1.6 0.00 0.00 0.00 90 1013.8
20260508010111 10 122 0.0 0.0 0.00 0.00 0.00 90 1013.9
20260508005123 10 122 0.0 0.0 0.00 0.00 0.00 90 1014.0
20260508004137 10 122 0.0 1.6 0.00 0.00 0.00 90 1014.1
20260508003123 11 122 0.0 0.0 0.00 0.00 0.00 90 1014.0
20260508002136 11 122 0.0 0.0 0.00 0.00 0.00 90 1014.0
20260508001122 11 122 0.0 0.0 0.00 0.00 0.00 89 1014.1
20260508000135 11 122 0.0 0.0 0.00 0.00 0.00 89 1014.2
20260507235121 11 122 0.0 0.0 0.00 0.00 0.00 89 1014.2
20260507234114 11 122 0.0 1.6 0.00 0.00 0.00 88 1014.2
20260507233120 11 123 0.0 1.6 0.00 0.00 0.00 88 1014.3
20260507232113 11 123 0.0 1.6 0.00 0.00 0.00 88 1014.3
20260507231120 11 119 0.0 1.6 0.00 0.00 0.00 88 1014.3
20260507230131 11 119 0.0 0.0 0.00 0.00 0.00 87 1014.3
20260507225124 11 119 0.0 1.6 0.00 0.00 0.00 86 1014.3
20260507224157 11 119 0.0 0.0 0.00 0.00 0.00 86 1014.3
20260507223122 11 119 0.0 1.6 0.00 0.00 0.00 85 1014.4
20260507222113 11 120 0.0 0.0 0.00 0.00 0.00 84 1014.4
20260507221125 11 113 0.0 0.0 0.00 0.00 0.00 83 1014.4
20260507220116 11 113 0.0 1.6 0.00 0.00 0.00 83 1014.5
20260507215135 11 103 0.0 1.6 0.00 0.00 0.00 82 1014.6
20260507214112 11 120 0.0 1.6 0.00 0.00 0.00 81 1014.5
20260507213118 11 113 0.0 0.0 0.00 0.00 0.00 81 1014.5
20260507212130 11 113 0.0 0.0 0.00 0.00 0.00 81 1014.4
20260507211117 11 113 0.0 0.0 0.00 0.00 0.00 80 1014.4
20260507210158 11 113 0.0 0.0 0.00 0.00 0.00 79 1014.3
20260507205143 11 113 0.0 0.0 0.00 0.00 0.00 79 1014.3
20260507204115 11 113 0.0 1.6 0.00 0.00 0.00 79 1014.2
20260507203128 11 113 0.0 1.6 0.00 0.00 0.00 80 1014.1
20260507202141 11 120 0.0 1.6 0.00 0.00 0.00 80 1014.1
20260507201126 11 120 0.0 1.6 0.00 0.00 0.00 79 1014.0
20260507200119 11 120 0.0 0.0 0.00 0.00 0.00 79 1013.9
20260507195126 11 120 0.0 1.6 0.00 0.00 0.00 78 1013.8
20260507194137 11 120 0.0 1.6 0.00 0.00 0.00 78 1013.7
20260507193128 11 122 0.0 1.6 0.00 0.00 0.00 78 1013.7
20260507192120 11 113 0.0 0.0 0.00 0.00 0.00 77 1013.7
20260507191154 11 114 0.0 1.6 0.00 0.00 0.00 76 1013.6
20260507190120 12 117 0.0 0.0 0.00 0.00 0.00 75 1013.6
20260507185153 12 104 0.0 1.6 0.00 0.00 0.00 73 1013.5
20260507184124 12 120 0.0 1.6 0.00 0.00 0.00 72 1013.5
20260507183130 13 120 0.0 1.6 0.00 0.00 0.00 71 1013.5
20260507182122 13 82 0.0 1.6 0.00 0.00 0.00 70 1013.5
20260507181135 13 95 0.0 1.6 0.00 0.00 0.00 71 1013.4
20260507180147 13 108 0.0 1.6 0.00 0.00 0.00 70 1013.5
20260507175112 13 104 0.0 3.2 0.00 0.00 0.00 67 1013.5
20260507174126 13 120 0.0 1.6 0.00 0.00 0.00 64 1013.5
20260507173116 13 304 0.0 3.2 0.00 0.00 0.00 63 1013.5
20260507172148 14 122 0.0 1.6 0.00 0.00 0.00 61 1013.6
20260507171112 14 116 0.0 1.6 0.00 0.00 0.00 60 1013.7
20260507170125 14 96 0.0 1.6 0.00 0.00 0.00 58 1013.6
20260507165131 14 97 0.0 1.6 0.00 0.00 0.00 59 1013.7
20260507164144 14 119 0.0 1.6 0.00 0.00 0.00 61 1013.6
20260507163115 14 115 0.0 1.6 0.00 0.00 0.00 63 1013.7
20260507162121 14 105 0.0 1.6 0.00 0.00 0.00 61 1013.6
20260507161113 15 133 0.0 3.2 0.00 0.00 0.00 60 1013.7
20260507160120 15 126 0.0 3.2 0.00 0.00 0.00 58 1013.7
20260507155114 15 127 0.0 9.7 0.00 0.00 0.00 55 1013.8
20260507154127 16 110 0.0 3.2 0.00 0.00 0.00 57 1013.8
20260507153113 16 80 0.0 4.8 0.00 0.00 0.00 56 1013.7
20260507152126 16 115 0.0 6.4 0.00 0.00 0.00 54 1013.8
20260507151132 16 120 0.0 3.2 0.00 0.00 0.00 54 1013.8
20260507150122 16 98 0.0 4.8 0.00 0.00 0.00 57 1013.9
20260507145136 16 112 0.0 4.8 0.00 0.00 0.00 52 1014.0
20260507144141 16 129 0.0 3.2 0.00 0.00 0.00 50 1014.0
20260507143114 16 117 0.0 4.8 0.00 0.00 0.00 52 1014.0
20260507142128 16 94 0.0 3.2 0.00 0.00 0.00 52 1014.1
20260507141113 16 123 0.0 8.0 0.00 0.00 0.00 54 1014.3
20260507140147 16 110 0.0 4.8 0.00 0.00 0.00 55 1014.4
20260507135139 16 110 0.0 4.8 0.00 0.00 0.00 54 1014.4
20260507134124 15 106 0.0 6.4 0.00 0.00 0.00 53 1014.3
20260507133118 16 108 0.0 4.8 0.00 0.00 0.00 51 1014.3
20260507132151 16 113 1.6 3.2 0.00 0.00 0.00 51 1014.4
20260507131115 17 288 1.6 4.8 0.00 0.00 0.00 52 1014.5
20260507130129 16 134 0.0 3.2 0.00 0.00 0.00 56 1014.4
20260507125143 16 336 1.6 8.0 0.00 0.00 0.00 60 1014.4
20260507124134 16 101 0.0 6.4 0.00 0.00 0.00 64 1014.3
20260507123120 16 114 0.0 6.4 0.00 0.00 0.00 66 1014.5
20260507122153 16 124 0.0 6.4 0.00 0.00 0.00 70 1014.6
20260507121146 15 76 0.0 4.8 0.00 0.00 0.00 73 1014.5
20260507120138 14 91 0.0 3.2 0.00 0.00 0.00 77 1014.6
20260507115125 13 117 0.0 3.2 0.00 0.00 0.00 78 1014.7
20260507114138 13 95 0.0 3.2 0.00 0.00 0.00 77 1014.7
20260507113124 13 133 0.0 3.2 0.00 0.00 0.00 76 1014.7
20260507112136 13 339 1.6 4.8 0.00 0.00 0.00 77 1014.6
20260507111122 14 127 0.0 1.6 0.00 0.00 0.00 77 1014.7
20260507110136 14 107 0.0 4.8 0.00 0.00 0.00 75 1014.7
20260507105147 15 116 0.0 3.2 0.00 0.00 0.00 74 1014.6
20260507104139 15 110 0.0 4.8 0.00 0.00 0.00 73 1014.7
20260507103130 15 84 0.0 4.8 0.00 0.00 0.00 74 1014.7
20260507102117 15 89 0.0 1.6 0.00 0.00 0.00 74 1014.6
20260507101130 15 143 1.6 8.0 0.00 0.00 0.00 73 1014.7
20260507100136 16 108 0.0 3.2 0.00 0.00 0.00 73 1014.8
20260507095112 15 102 0.0 3.2 0.00 0.00 0.00 74 1014.7
20260507094125 15 113 0.0 3.2 0.00 0.00 0.00 77 1014.6
20260507093110 15 125 0.0 3.2 0.00 0.00 0.00 77 1014.6
20260507092124 15 110 0.0 1.6 0.00 0.00 0.00 77 1014.5
20260507091110 15 112 0.0 3.2 0.00 0.10 0.00 79 1014.5
20260507090144 13 108 0.0 1.6 0.00 0.10 0.00 82 1014.5
20260507085116 13 112 0.0 3.2 0.00 0.10 0.00 84 1014.5
20260507084127 12 107 0.0 1.6 0.00 0.10 0.00 86 1014.6
20260507083133 12 113 0.0 3.2 0.00 0.10 0.00 87 1014.6
20260507082126 12 122 0.0 1.6 0.00 0.10 0.00 89 1014.6
20260507081118 11 115 0.0 0.0 0.00 0.51 0.00 91 1014.7
20260507080124 11 114 0.0 1.6 0.00 0.51 0.00 92 1014.7